sat.trackr.live / text

‹ back to catalog

EOSSAT-1

NORAD 55053 · 2023-001AW

PAYLOAD ACTIVE UNKNOWN

§ Identity

Operator
Country
SAFR
Launch date
2023-01-03
Launch site
AFETR
Launch vehicle
Mass (kg)
RCS (m²)

External: N2YO · Heavens-Above · Gunter

§ Orbital elements

Epoch: 2026-09-21T16:33:05.936256Z

Period
93.85 min
Inclination
97.3140°
Eccentricity
0.0010237
Mean motion
15.34379203 rev/d
Perigee alt
455.8 km
Apogee alt
469.8 km
Semi-major
6,840.9 km
B*
1.0073e-4
RAAN
324.4535°
Arg perigee
125.8566°
Mean anomaly
234.3630°
Rev number
20,671

§ Raw data

EOSSAT-11 55053U 23001AW  26264.68965204  .00003279  00000+0  10073-3 0  99982 55053  97.3140 324.4535 0010237 125.8566 234.3630 15.34379203206710

JSON: /api/v1/satellites/55053 · /tle

For live sub-satellite position, see the globe view (requires WebGL).

§ Visibility from observer

Set your observer location to see the next 7 days of passes ≥ 10°. The values pass through the URL so the page stays shareable.

No JS? Fill the form by hand. The geolocation button needs JavaScript.